Weather in Ōtsu

Japan     35°00′54″N   135°51′33″E
temp.,
°C
wind,
m/s
gust,
m/s
humid.,
%
clouds,
%
prec.,
mm/h
press.,
hPa
HPBL,
m
15 may, sat
sat1500:00+19se0183100 0.0 101416
03:00+18ene1183100 0.0 101530
06:00+18ene1277100 0.0 101684
09:00+22e3568100 0.0 1015858
12:00+25ese565599 0.0 10141585
15:00+23ese5864100 0.1 1013892
18:00+21ese51072100 0.0 1014731
21:00+20e3975100 0.0 1015616
16 may, sun
sun1600:00+19ese4988100 0.3 1014662
03:00+18ese3995100 3.6 1013643
06:00+17e3996100 5.2 1013589
09:00+18ene2696100 8.0 1013406
12:00+18ene2495100 0.4 1012461
15:00+18ene2397100 2.1 1010250
18:00+17e1299100 5.8 1009146
21:00+17ene0199100 10.9 100882
17 may, mon
mon1700:00+19ssw21098100 0.4 1007490
03:00+20sw21198100 1.4 1005567
06:00+20ssw31399100 0.8 1004751
09:00+21ssw41298100 4.8 1004795
12:00+21sw41198100 1.3 1004896
15:00+20wsw3899100 3.9 1004562
18:00+20ssw1399100 1.4 1005257
21:00+20wsw1299100 2.9 1007109
18 may, tue
tue1800:00+18nnw1297100 0.3 1007152
03:00+17wnw119699 0.3 1008102
06:00+17nw119673 0.0 101083
09:00+18wnw019094 0.0 1011340
12:00+20nnw018498 0.3 1010461
15:00+20e118399 0.4 1010398
18:00+18wsw1192100 0.6 1011139
21:00+17nnw1292100 1.3 1012119
19 may, wed
wed1900:00+17nw1290100 0.0 1013104
03:00+16nnw1190100 0.0 101272
06:00+17nnw128896 0.0 1014129
09:00+21nw127065 0.0 1014843
12:00+23nw2358100 0.1 10141426
15:00+24nw3351100 0.1 10131346
18:00+21nne12601 0.0 101379
21:00+16nnw22695 0.0 101747